Flag for Albania Weather past 2 weeks in Durrës, Albania

52 °F

Light rain. Mostly cloudy.

Feels Like: 49 °F
Forecast: 56 / 59 °F
Wind: 9 mph from South

Location: Tirana Airport

Current Time: Nov 26, 2015 at 1:48:14 AM

Latest Report: Nov 26, 2015 at 1:20 AM

Visibility: N/A

Pressure: 29.53 "Hg

Humidity: 94%

Dew point: 50 °F

Location of DurrësLocation

Historic Weather in Durrës — Graph


Durrës temperature yesterday

Maximum temperature yesterday: 57 °F (at 9:20 AM)
Minimum temperature yesterday: 52 °F (at 11:20 PM)
Average temperature yesterday: 55 °F

Past Weeks' High & Low Weather Summary

High75 °F (Nov 11, 12:50 PM)100% (Nov 14, 8:20 AM)30.36 "Hg (Nov 14, 8:20 AM)
Low43 °F (Nov 16, 5:20 AM)41% (Nov 11, 1:50 PM)29.45 "Hg (Nov 21, 11:20 PM)
Average58 °F80%30.05 "Hg
* Reported Nov 11 12:50 AM — Nov 26 12:20 AM, Durrës, Weather by CustomWeather, © 2015

Note: Actual official high and low records may vary slightly from our data, if they occured in-between our weather recording intervals... More about our weather records


Durrës weather history for previous 24 hours

Time TempWeatherWind HumidityBarometerVisibility
12:20 AM
Thu, Nov 26
52 °FLight rain. Mostly cloudy.6 mph94%29.53 "HgN/A
11:50 PM
Wed, Nov 25
52 °FRain. Mostly cloudy.6 mph94%29.53 "HgN/A
11:20 PM52 °FLight rain. Partly cloudy.3 mph94%29.53 "HgN/A
10:50 PM54 °FLight rain. Mostly cloudy.3 mph88%29.53 "HgN/A
10:20 PM54 °FLight rain. Partly cloudy.6 mph88%29.53 "HgN/A
9:50 PM54 °FLight rain. Passing clouds.8 mph88%29.53 "HgN/A
9:20 PM54 °FLight rain. Mostly cloudy.2 mph88%29.53 "HgN/A
8:50 PM54 °FPassing clouds.6 mph88%29.53 "HgN/A
8:20 PM54 °FPassing clouds.8 mph88%29.53 "HgN/A
7:50 PM54 °FPartly cloudy.7 mph88%29.53 "HgN/A
7:20 PM55 °FLight rain. Passing clouds.3 mph82%29.53 "HgN/A
6:50 PM55 °FPassing clouds.5 mph88%29.56 "HgN/A
6:20 PM55 °FPassing clouds.2 mph88%29.56 "HgN/A
5:50 PM55 °FPassing clouds.No wind88%29.56 "HgN/A
5:20 PM55 °FMostly cloudy.2 mph88%29.56 "HgN/A
4:50 PM55 °FMostly cloudy.2 mph88%29.53 "HgN/A
4:20 PM57 °FMostly cloudy.2 mph77%29.56 "HgN/A
3:50 PM57 °FBroken clouds.5 mph82%29.56 "HgN/A
3:20 PM57 °FPartly sunny.2 mph82%29.56 "HgN/A
2:50 PM55 °FBroken clouds.No wind88%29.56 "HgN/A
2:20 PM55 °FMore clouds than sun.7 mph88%29.56 "HgN/A
1:50 PM55 °FMore clouds than sun.7 mph88%29.56 "HgN/A
1:20 PM55 °FMore clouds than sun.5 mph94%29.59 "HgN/A
12:50 PM55 °FLight rain. More clouds than sun.8 mph88%29.65 "Hg5 mi
12:20 PM55 °FRain. More clouds than sun.3 mph88%29.68 "Hg4 mi
11:50 AM55 °FLight rain. More clouds than sun.3 mph88%29.71 "HgN/A
11:20 AM55 °FRain. More clouds than sun.2 mph94%29.71 "HgN/A
10:50 AM55 °FLight rain. More clouds than sun.2 mph88%29.74 "HgN/A
10:20 AM55 °FLight rain. More clouds than sun.3 mph82%29.77 "HgN/A
9:50 AM55 °FLight rain. More clouds than sun.5 mph82%29.77 "HgN/A
9:20 AM57 °FLight rain. Mostly cloudy.6 mph77%29.80 "HgN/A
8:50 AM55 °FLight rain. Mostly cloudy.6 mph82%29.83 "HgN/A
8:20 AM55 °FLight rain. More clouds than sun.8 mph82%29.83 "HgN/A
7:50 AM55 °FLight rain. Mostly cloudy.12 mph82%29.83 "HgN/A
7:20 AM55 °FLight rain. Mostly cloudy.10 mph82%29.83 "HgN/A
6:50 AM55 °FCloudy.6 mph82%29.83 "HgN/A
6:20 AM55 °FOvercast.8 mph82%29.86 "HgN/A
5:50 AM55 °FPartly cloudy.7 mph82%29.86 "HgN/A
5:20 AM55 °FLight rain. Mostly cloudy.2 mph82%29.86 "HgN/A
4:20 AM55 °FMostly cloudy.3 mph82%29.89 "HgN/A
3:50 AM55 °FMostly cloudy.5 mph82%29.89 "HgN/A
3:20 AM55 °FMostly cloudy.3 mph82%29.89 "HgN/A
2:50 AM55 °FMostly cloudy.7 mph82%29.92 "HgN/A
2:20 AM55 °FLight rain. Mostly cloudy.7 mph82%29.92 "HgN/A
1:20 AM55 °FLight rain. Mostly cloudy.10 mph82%29.95 "HgN/A
Weather by CustomWeather, © 2015

See weather overviewHow to use our weather pages